Location: Kott?ru
(16.6209°N, 80.6208°E)
Time: 06:32:07
(UTC+00:00)

Hubble Space Telescope - Pass Details

Date: 08 February 2023
Orbit: 527 x 530 km, 28.5° (Epoch: 27 March)

Event Time Altitude Azimuth Distance (km) Brightness Sun altitude
Rises 14:20:09 0° 244° (WSW) 2,641 5.5 -25.0°
Reaches altitude 10° 14:22:24 10° 244° (WSW) 1,752 4.3 -25.5°
Enters shadow 14:25:21 47° 243° (WSW) 694 1.6 -26.2°
